Temp
61 61 61 61 61 61 61 62 61 61 61 61 62 62 62 62 64 57 52 57 59 66 63 56 59 60 60 57 57 55 48 43 45 45 49 49 50 51 52 50 50 50 50 50 50
61 61 61 61 61 61 61 61 61 61 61 61 61 61 62 62 55 53 62 67 67 66 56 57 56 58 55 55 54 52 47 48 49 48 48 48 50 50 50 48 48 48 49 49 50
61 60 61 61 61 61 61 61 61 61 61 61 61 61 61 57 52 50 66 67 67 63 57 57 57 58 53 52 50 48 47 47 48 49 50 48 47 49 48 46 49 47 47 47 47
60 60 60 60 60 61 61 61 61 61 61 61 61 61 61 53 45 53 64 65 66 58 58 58 57 53 49 49 49 49 46 48 48 49 48 47 48 47 46 50 50 51 49 47 46
59 59 60 60 60 61 61 61 61 61 61 61 61 61 54 49 48 57 62 61 58 56 56 57 53 52 49 47 48 47 45 47 47 48 46 48 45 47 46 48 48 47 47 46 45
58 58 58 59 60 61 61 61 61 61 61 61 61 61 51 46 55 57 56 57 57 56 54 56 56 53 48 45 46 44 45 45 46 46 46 46 44 45 45 43 44 45 45 44 45
57 57 58 59 59 60 61 61 61 61 61 61 62 58 52 47 55 55 56 54 55 55 54 54 56 56 49 44 46 45 43 43 43 45 44 46 44 43 43 44 43 43 43 43 45
57 57 57 58 59 60 60 60 60 61 61 62 62 53 46 55 54 56 56 54 56 57 56 55 56 51 49 46 45 42 41 39 41 44 43 45 42 41 41 42 41 41 41 42 43
56 56 57 58 58 59 59 60 60 62 62 62 52 51 45 59 52 53 53 53 54 55 56 60 53 47 47 43 39 38 36 35 40 43 42 42 41 41 40 40 41 40 40 40 41
55 55 56 57 58 59 59 60 61 60 59 59 58 49 49 48 50 52 52 53 53 53 54 53 46 42 40 41 36 38 35 36 36 40 39 37 39 41 41 39 41 40 39 39 40
55 55 55 56 57 59 55 53 51 49 52 47 47 48 48 50 52 51 50 51 52 51 43 45 43 39 43 41 42 41 39 37 36 38 38 37 38 44 43 40 41 41 41 40 40
55 55 55 55 57 59 52 50 47 49 44 50 50 50 52 52 47 49 52 47 46 40 41 40 38 43 44 44 43 41 39 36 36 38 38 35 39 43 43 43 44 46 44 43 39
54 54 55 55 56 56 52 49 52 50 45 46 49 49 49 51 45 46 48 46 42 39 38 37 38 43 43 39 41 38 38 37 39 37 35 35 38 42 46 42 45 47 46 44 41
54 54 54 55 52 51 50 52 52 52 36 42 43 47 49 49 43 49 49 46 41 38 40 37 39 40 38 38 41 37 42 41 38 37 33 36 31 40 47 47 46 45 43 41 40
53 53 54 55 48 48 49 51 52 52 25 41 42 52 49 45 44 46 49 46 39 37 38 36 35 37 38 38 41 38 41 39 37 33 31 32 28 39 42 45 45 44 44 39 40
52 53 53 52 47 47 49 49 51 36 28 32 40 41 42 43 43 45 45 47 43 39 36 35 37 36 35 37 39 41 38 36 32 31 24 30 30 35 39 42 43 44 42 39 37
52 52 50 51 45 48 48 48 34 31 35 34 35 39 39 38 39 41 40 38 34 30 29 34 34 35 37 37 38 38 36 26 24 22 26 30 27 39 41 43 42 40 40 37 37
52 51 47 50 48 47 46 40 28 27 29 37 38 39 36 38 36 38 37 33 36 35 28 28 28 34 36 35 36 35 36 29 22 22 26 30 27 39 41 42 40 38 36 36 36
51 42 42 47 49 46 41 33 30 32 37 35 37 33 33 36 36 35 35 35 38 38 34 28 28 34 35 35 35 34 32 35 25 14 23 30 35 42 40 40 39 38 36 34 35
39 39 43 47 48 46 36 35 32 38 39 38 35 35 29 32 32 33 33 38 38 39 38 36 27 31 34 34 35 34 37 30 27 18 17 26 29 34 38 40 39 37 36 35 35
38 34 42 47 46 38 33 35 34 40 42 38 36 33 34 32 33 29 33 36 39 38 39 37 34 29 32 31 30 31 30 31 32 30 23 21 30 37 38 38 38 38 39 36 35
36 24 43 46 35 33 32 29 39 37 39 39 39 37 35 34 32 32 32 35 38 40 37 38 33 26 28 30 32 31 31 33 28 25 25 27 30 39 39 37 38 40 40 37 36
32 31 43 43 32 32 31 33 36 35 37 38 37 39 37 34 30 33 34 36 38 39 37 39 30 22 26 29 30 30 33 34 32 31 25 24 31 39 37 37 40 40 40 39 36
33 20 32 37 35 31 32 29 31 38 37 39 37 38 36 32 34 31 32 34 37 38 42 42 30 30 28 30 30 28 30 32 32 24 27 28 33 39 41 40 40 41 41 39 37
30 26 29 29 31 30 35 33 32 32 37 37 34 36 36 32 32 31 33 33 36 38 36 36 27 30 30 30 30 32 31 29 29 32 29 31 32 38 40 40 40 41 40 38 37
19 27 28 24 31 33 33 29 29 33 34 32 30 34 37 32 35 32 34 33 31 35 34 34 29 29 23 30 29 28 30 30 31 32 29 32 32 42 44 39 38 39 39 38 38
33 33 25 23 28 30 27 28 30 33 33 36 36 34 33 34 38 38 37 36 36 33 33 34 24 24 19 23 27 23 27 30 30 30 33 28 37 40 37 39 39 40 40 39 39
MSLP
1015.91 1015.79 1015.77 1015.75 1015.66 1015.56 1015.55 1015.56 1015.61 1015.53 1015.41 1015.29 1015.09 1014.95 1014.78 1014.72 1014.57 1014.68 1015.11 1015.39 1015.25 1015.00 1015.05 1015.04 1014.83 1014.78 1014.98 1015.85 1016.28 1016.72 1018.17 1019.67 1019.87 1020.28 1019.97 1020.44 1020.80 1021.33 1021.68 1022.10 1022.64 1022.97 1023.33 1023.81 1024.16
1015.81 1015.67 1015.69 1015.66 1015.59 1015.45 1015.45 1015.36 1015.39 1015.45 1015.29 1015.16 1014.99 1014.90 1014.68 1014.62 1014.79 1015.00 1015.31 1015.04 1014.88 1014.79 1014.83 1014.92 1014.96 1014.93 1015.76 1016.44 1016.92 1017.36 1018.59 1019.14 1019.31 1019.60 1019.99 1020.51 1020.83 1021.33 1021.85 1022.29 1022.78 1023.28 1023.76 1024.06 1024.37
1015.68 1015.55 1015.59 1015.62 1015.52 1015.34 1015.36 1015.19 1015.21 1015.24 1015.18 1015.07 1014.86 1014.82 1014.64 1014.56 1015.01 1015.31 1015.12 1014.90 1014.80 1014.79 1014.68 1014.77 1014.91 1015.08 1016.15 1016.86 1017.69 1018.08 1018.88 1019.25 1019.54 1019.75 1020.02 1020.55 1021.08 1021.39 1021.81 1022.33 1022.22 1022.82 1023.48 1024.12 1024.59
1015.55 1015.51 1015.45 1015.52 1015.36 1015.25 1015.26 1015.01 1014.94 1014.98 1015.03 1014.89 1014.73 1014.69 1014.52 1014.63 1015.40 1015.23 1015.11 1014.84 1014.76 1014.90 1014.81 1014.72 1015.03 1015.68 1016.74 1017.51 1018.02 1018.61 1019.32 1019.44 1019.76 1019.94 1020.44 1020.88 1021.07 1021.47 1021.92 1021.69 1021.94 1022.42 1023.14 1024.04 1024.64
1015.45 1015.31 1015.29 1015.21 1015.13 1015.07 1015.03 1014.89 1014.70 1014.62 1014.65 1014.65 1014.49 1014.43 1014.59 1014.85 1015.25 1015.14 1014.99 1014.79 1014.73 1014.88 1014.78 1014.67 1015.22 1015.97 1017.27 1017.99 1018.42 1018.98 1019.72 1019.95 1020.11 1020.24 1020.49 1020.85 1021.33 1021.65 1021.69 1021.79 1022.21 1022.78 1023.53 1024.18 1024.79
1015.40 1015.29 1015.25 1015.04 1014.91 1014.78 1014.66 1014.59 1014.39 1014.25 1014.28 1014.31 1014.27 1014.20 1014.60 1015.14 1015.21 1015.16 1015.01 1014.81 1014.80 1014.81 1014.80 1014.79 1015.17 1015.94 1017.58 1018.63 1019.04 1019.80 1020.00 1020.29 1020.37 1020.50 1020.71 1020.94 1021.35 1021.70 1021.78 1022.23 1022.93 1023.31 1023.84 1024.47 1024.92
1015.30 1015.30 1015.17 1014.89 1014.71 1014.61 1014.38 1014.21 1014.11 1013.95 1013.88 1014.09 1014.18 1014.08 1014.45 1015.29 1015.25 1015.10 1014.87 1014.92 1014.91 1014.80 1015.00 1015.06 1015.21 1015.85 1017.71 1019.02 1019.72 1019.92 1020.23 1020.39 1020.58 1020.69 1021.00 1021.06 1021.57 1021.56 1022.00 1022.59 1023.31 1023.87 1024.30 1024.65 1024.93
1015.19 1015.24 1015.08 1014.79 1014.58 1014.47 1014.25 1014.03 1013.88 1013.72 1013.73 1013.92 1014.16 1014.23 1014.80 1014.99 1015.09 1015.13 1015.08 1014.95 1014.89 1014.80 1015.10 1015.44 1015.47 1016.64 1018.06 1019.24 1019.86 1020.27 1020.46 1020.84 1020.76 1020.86 1021.23 1021.43 1021.30 1021.68 1022.41 1022.92 1023.60 1024.04 1024.36 1024.60 1024.87
1015.30 1015.19 1014.97 1014.82 1014.52 1014.28 1014.10 1013.94 1013.70 1013.68 1013.74 1013.90 1014.23 1014.28 1015.02 1014.91 1015.16 1015.43 1015.37 1015.17 1015.06 1015.20 1015.42 1015.62 1016.17 1017.91 1018.80 1019.27 1020.37 1020.76 1020.69 1020.91 1020.81 1021.07 1021.43 1021.86 1021.64 1021.82 1022.50 1023.12 1023.52 1023.72 1024.00 1024.35 1024.71
1015.41 1015.22 1015.00 1014.87 1014.45 1014.21 1013.93 1013.87 1013.68 1013.72 1013.91 1014.06 1014.22 1014.74 1015.31 1015.24 1015.35 1015.43 1015.35 1015.27 1015.41 1015.45 1015.85 1016.32 1017.36 1018.37 1019.10 1019.24 1019.90 1020.29 1020.53 1020.62 1020.98 1021.40 1021.82 1022.26 1021.51 1021.85 1022.30 1022.79 1022.77 1023.00 1023.39 1023.82 1024.11
1015.63 1015.37 1015.07 1014.84 1014.51 1014.24 1014.00 1014.07 1014.54 1014.48 1014.22 1014.51 1014.78 1014.95 1015.27 1015.41 1015.42 1015.61 1015.62 1015.53 1015.53 1016.05 1016.73 1017.26 1018.06 1018.36 1018.40 1018.70 1018.66 1019.11 1019.86 1020.33 1020.87 1021.56 1021.99 1022.07 1021.74 1020.84 1021.36 1021.79 1021.69 1021.69 1022.01 1022.48 1023.45
1015.57 1015.46 1014.96 1014.57 1014.46 1014.10 1014.21 1014.47 1014.73 1014.86 1014.90 1014.93 1014.89 1015.07 1015.25 1015.44 1015.73 1015.81 1015.71 1015.91 1016.14 1017.06 1017.47 1018.19 1018.21 1018.34 1018.39 1018.70 1018.83 1019.02 1019.53 1020.31 1020.97 1021.64 1022.14 1021.95 1021.02 1020.16 1019.80 1019.43 1018.97 1019.23 1020.29 1021.60 1023.07
1015.66 1015.35 1015.20 1014.85 1014.59 1014.14 1014.46 1014.91 1015.00 1014.71 1014.89 1015.33 1015.22 1015.24 1015.41 1015.58 1015.92 1016.07 1015.94 1016.02 1016.80 1017.61 1017.99 1018.48 1018.75 1018.48 1018.56 1019.02 1019.04 1019.23 1019.60 1020.14 1020.89 1021.68 1022.27 1022.20 1020.83 1019.52 1018.04 1017.90 1017.96 1019.17 1020.01 1020.99 1022.02
1015.74 1015.60 1015.52 1014.99 1014.89 1014.64 1014.78 1015.16 1014.86 1014.57 1015.18 1015.39 1015.37 1015.35 1015.46 1015.53 1016.25 1016.28 1016.21 1016.20 1017.20 1018.01 1018.45 1018.96 1019.04 1019.02 1019.06 1019.27 1019.28 1019.70 1019.44 1020.03 1021.00 1021.90 1022.83 1022.59 1021.42 1019.36 1017.72 1017.54 1018.03 1018.41 1019.19 1020.02 1021.14
1015.76 1015.64 1015.44 1015.01 1014.68 1014.88 1015.14 1014.93 1014.68 1014.54 1015.72 1015.75 1015.61 1015.56 1015.59 1015.96 1016.55 1016.45 1016.48 1016.28 1017.28 1018.19 1018.89 1019.53 1019.60 1019.64 1019.60 1019.39 1019.35 1019.89 1020.07 1020.84 1021.59 1022.54 1023.06 1023.10 1022.50 1018.95 1018.08 1017.66 1018.24 1018.60 1019.01 1019.84 1020.73
1016.00 1015.81 1015.44 1015.08 1015.09 1015.13 1015.01 1014.84 1014.85 1015.97 1015.87 1016.00 1015.92 1015.76 1016.12 1016.32 1016.62 1016.72 1016.70 1016.83 1017.69 1018.48 1019.34 1020.08 1020.10 1020.17 1020.18 1020.23 1020.04 1020.31 1020.81 1021.92 1022.73 1023.27 1023.61 1023.09 1022.67 1019.62 1018.44 1018.51 1018.72 1019.11 1019.81 1020.35 1021.17
1015.96 1015.73 1015.58 1015.25 1015.43 1015.08 1015.07 1015.15 1015.99 1015.89 1016.01 1016.29 1016.27 1016.32 1016.37 1016.80 1017.10 1017.01 1017.15 1017.51 1017.89 1019.13 1020.00 1020.53 1020.75 1020.79 1020.59 1020.70 1020.75 1020.68 1021.22 1022.66 1023.76 1024.14 1023.93 1023.23 1022.90 1019.24 1018.54 1018.49 1019.15 1019.88 1020.20 1020.86 1021.62
1015.61 1015.43 1015.32 1014.97 1015.02 1015.14 1015.33 1015.62 1015.76 1015.20 1015.45 1015.90 1016.18 1016.42 1016.90 1016.93 1017.44 1017.41 1017.53 1017.81 1017.98 1018.41 1019.84 1020.40 1021.46 1021.34 1021.30 1020.95 1020.65 1021.09 1021.13 1021.78 1023.04 1024.37 1024.09 1023.55 1021.85 1018.78 1018.43 1018.65 1019.24 1020.03 1020.70 1021.35 1022.15
1015.50 1015.69 1015.52 1015.01 1015.10 1015.29 1015.57 1015.49 1014.72 1014.92 1014.94 1015.49 1016.45 1016.65 1017.24 1017.30 1017.31 1017.78 1017.91 1017.76 1017.53 1017.90 1018.57 1019.86 1021.26 1021.92 1021.88 1021.64 1021.54 1021.58 1021.53 1021.64 1022.91 1024.73 1024.11 1022.40 1020.40 1018.47 1018.43 1018.84 1019.38 1020.20 1021.04 1021.61 1022.01
1016.30 1015.92 1015.61 1015.35 1015.11 1015.22 1015.53 1015.12 1014.91 1014.62 1014.59 1014.87 1015.42 1016.09 1016.95 1017.25 1017.49 1017.77 1018.02 1017.43 1017.39 1017.49 1017.63 1018.83 1020.98 1022.33 1022.28 1022.13 1021.85 1021.59 1021.55 1021.97 1022.56 1023.77 1023.64 1022.29 1020.81 1018.96 1018.58 1018.82 1019.56 1020.26 1020.98 1021.66 1022.08
1016.20 1015.74 1015.32 1015.27 1015.15 1015.37 1015.56 1015.32 1015.07 1014.68 1014.42 1014.81 1015.15 1015.81 1016.57 1016.98 1017.46 1017.54 1017.69 1017.80 1017.46 1017.64 1017.75 1018.36 1019.47 1022.60 1022.67 1022.42 1022.18 1022.20 1021.80 1022.02 1022.18 1022.50 1022.54 1022.28 1020.13 1018.32 1018.38 1018.80 1019.41 1020.07 1020.43 1021.04 1021.49
1016.25 1016.25 1015.16 1015.15 1015.49 1015.46 1015.66 1015.19 1015.06 1014.93 1014.74 1014.67 1014.75 1015.33 1016.05 1016.72 1017.20 1017.55 1017.51 1017.58 1017.46 1017.39 1018.02 1018.23 1019.55 1021.56 1022.08 1022.27 1022.30 1022.16 1021.80 1021.60 1021.97 1022.69 1022.69 1022.01 1019.59 1018.03 1018.22 1018.72 1019.24 1019.68 1020.11 1020.52 1021.06
1016.66 1016.52 1015.31 1015.10 1015.65 1015.84 1015.88 1015.37 1015.25 1015.27 1014.85 1014.85 1015.02 1015.18 1015.73 1016.38 1017.17 1017.46 1017.70 1018.11 1017.91 1017.60 1017.60 1018.15 1019.59 1021.35 1022.14 1022.59 1022.39 1022.17 1021.81 1021.63 1021.72 1021.96 1022.18 1021.68 1019.80 1018.37 1018.54 1018.69 1018.89 1019.48 1019.79 1020.24 1020.74
1017.35 1017.36 1016.66 1015.78 1016.10 1015.86 1015.89 1015.99 1015.52 1015.25 1015.01 1015.02 1015.22 1015.49 1015.91 1016.49 1017.04 1017.64 1018.10 1018.46 1018.35 1018.19 1018.09 1018.00 1019.37 1020.27 1020.90 1021.00 1021.30 1021.89 1021.68 1021.85 1021.67 1022.15 1021.68 1020.76 1019.53 1018.47 1018.18 1018.65 1018.65 1019.00 1019.27 1019.60 1020.05
1018.15 1017.90 1017.71 1016.74 1016.35 1016.28 1016.04 1016.29 1015.85 1015.80 1015.59 1015.36 1015.82 1015.81 1015.92 1016.81 1017.30 1017.86 1018.28 1018.77 1018.69 1018.71 1018.79 1018.88 1019.99 1020.68 1021.05 1021.26 1021.45 1021.59 1021.42 1021.60 1021.84 1021.33 1021.30 1020.49 1019.80 1018.62 1018.26 1018.45 1018.72 1019.05 1019.19 1019.33 1019.60
1018.73 1018.55 1018.36 1017.95 1017.28 1016.67 1016.74 1016.91 1016.44 1016.01 1016.04 1016.07 1016.11 1016.17 1016.24 1016.95 1017.22 1017.47 1017.90 1018.52 1018.50 1019.22 1019.50 1019.75 1020.81 1021.37 1022.02 1022.00 1021.79 1021.65 1021.38 1021.47 1021.41 1021.08 1020.69 1020.28 1019.34 1018.16 1017.81 1018.31 1018.71 1019.07 1019.16 1019.22 1019.18
1018.97 1019.07 1019.52 1019.54 1018.33 1017.68 1017.24 1017.35 1017.06 1016.63 1016.90 1016.68 1016.59 1016.74 1017.06 1017.61 1017.90 1017.87 1017.79 1018.08 1018.50 1019.03 1019.74 1020.23 1021.22 1022.29 1023.20 1023.00 1022.35 1021.29 1019.99 1020.18 1020.20 1019.79 1019.43 1019.44 1018.10 1017.77 1018.19 1018.46 1018.65 1018.88 1019.02 1019.03 1018.83
Wind_Speed
1 2 3 4 4 5 5 6 7 7 7 8 8 8 7 9 1 1 2 1 3 6 1 2 1 3 4 4 4 3 6 2 5 6 2 4 4 1 1 5 1 1 2 2 6
1 1 3 3 4 5 5 5 7 7 7 7 8 8 7 6 2 4 2 4 4 3 2 3 3 3 5 3 4 5 4 8 5 5 3 4 2 7 4 2 1 1 2 4 3
1 1 2 3 4 4 5 5 6 6 6 7 7 7 7 1 2 1 5 5 3 1 3 3 2 3 5 4 5 1 4 3 2 1 3 7 2 2 6 4 7 7 9 7 4
2 0 2 4 4 5 5 6 6 6 6 6 5 6 5 1 3 1 8 5 2 2 3 5 4 4 5 4 2 6 2 1 1 4 4 5 6 4 6 3 1 5 8 6 6
3 3 4 3 3 4 6 7 7 7 7 6 3 3 1 3 2 2 8 5 2 2 2 5 4 5 6 5 3 4 3 3 2 4 4 6 1 5 7 4 3 7 7 7 6
9 8 8 7 7 5 5 9 9 8 7 4 2 2 2 4 2 5 5 0 2 1 1 1 6 5 8 4 4 3 4 3 1 2 3 2 1 1 2 4 5 7 7 5 6
11 10 8 8 6 7 7 9 11 8 3 2 2 3 5 2 2 4 4 1 1 1 3 1 7 5 6 6 4 4 4 2 1 0 2 0 5 8 2 4 7 6 5 5 5
13 11 11 11 8 7 9 10 9 2 3 4 2 1 3 1 1 4 5 2 2 3 5 4 8 11 5 5 6 5 5 2 1 2 2 2 9 2 2 7 8 7 6 6 5
12 12 12 12 10 9 10 11 1 4 5 4 1 2 3 1 3 3 3 3 3 3 5 3 6 6 3 6 5 6 3 3 5 3 2 3 7 1 3 5 7 8 8 7 6
13 13 13 12 12 11 13 2 0 4 2 1 2 3 1 3 0 1 3 2 4 4 4 7 6 5 3 4 6 6 4 3 3 2 1 1 14 7 4 7 12 10 10 10 10
13 13 14 14 13 12 6 3 3 3 8 2 3 4 2 1 1 5 3 2 3 9 5 3 4 7 9 5 5 8 4 3 2 1 3 6 10 16 7 7 12 14 14 15 12
14 14 15 16 16 11 2 3 1 2 3 2 4 4 2 2 4 2 2 5 3 4 3 7 5 4 6 5 5 4 4 4 2 2 3 4 13 12 8 10 13 18 15 14 9
14 16 16 14 16 2 3 4 2 3 4 2 1 2 2 1 1 3 1 4 5 5 3 7 1 4 5 4 6 3 5 4 3 2 1 5 9 6 6 6 5 3 3 9 14
13 14 16 19 1 2 3 3 1 3 6 3 2 1 1 3 3 2 3 4 4 7 6 3 0 4 3 4 4 4 4 5 7 4 3 3 6 7 6 10 6 3 7 9 13
12 13 16 12 1 3 4 1 3 2 1 2 2 0 1 4 3 4 2 3 8 6 6 6 3 3 3 2 3 3 3 5 4 5 4 3 3 10 5 7 5 6 5 7 12
11 13 14 2 2 2 1 1 1 6 8 0 1 3 4 2 2 2 2 7 4 6 6 3 2 2 2 2 2 8 7 7 5 3 2 2 4 8 2 1 6 4 8 5 8
11 12 8 3 1 3 1 3 3 6 3 3 3 4 2 4 2 1 4 5 6 7 1 3 2 1 1 5 2 1 5 2 5 3 4 2 3 12 4 6 2 8 9 2 4
14 11 3 0 2 3 0 5 7 3 5 2 4 4 4 5 1 2 5 3 3 4 4 7 3 4 2 1 6 4 4 7 8 4 3 3 6 6 4 3 2 3 3 4 5
11 2 1 1 2 0 3 5 8 8 7 9 3 4 3 3 5 2 6 6 7 9 5 5 2 3 3 2 2 4 4 2 8 4 4 3 7 5 2 5 5 5 2 3 6
2 0 1 4 1 2 3 9 3 3 6 3 8 4 6 6 5 6 7 3 5 5 2 6 5 3 3 2 2 0 3 4 3 3 3 4 6 5 3 5 7 5 0 5 6
1 2 1 5 1 4 6 4 3 1 2 5 5 5 4 7 6 5 6 1 1 5 2 5 5 1 1 4 5 1 1 4 3 3 5 3 7 6 5 0 2 5 4 7 9
1 1 2 2 3 2 6 7 3 4 2 1 3 4 6 6 5 5 8 2 1 6 7 3 6 5 4 1 1 1 3 5 5 5 1 2 8 4 4 1 1 5 6 6 7
1 2 2 1 6 4 1 3 5 4 4 5 4 2 2 6 4 3 4 1 2 4 7 6 0 4 3 1 3 4 4 3 4 3 6 7 7 1 2 3 6 6 7 7 6
1 2 3 2 1 4 4 1 4 1 3 2 3 2 4 3 4 5 4 1 3 2 6 5 3 4 6 3 5 5 5 5 4 4 4 5 5 5 6 6 7 8 8 8 6
3 1 2 4 2 3 3 3 5 4 1 2 3 1 4 4 3 3 3 2 4 4 3 3 4 3 1 3 0 2 3 7 7 5 6 3 7 4 6 5 6 6 8 9 7
3 3 3 2 2 6 5 2 3 4 4 1 5 4 4 4 2 7 6 4 4 2 3 3 3 3 3 2 3 4 6 6 7 5 7 9 16 8 7 2 4 7 7 9 9
1 1 3 5 2 4 4 6 5 6 3 3 5 5 6 5 2 2 5 5 7 7 5 5 6 4 4 4 4 9 10 14 7 6 8 10 11 5 2 5 4 7 6 7 8
Wind_Direction
137 54 42 43 41 35 25 18 8 8 4 355 357 352 356 350 144 109 75 265 280 304 342 293 32 78 56 69 47 127 68 143 197 160 204 165 144 85 104 113 78 39 111 99 120
190 45 8 19 20 22 11 14 7 357 359 354 352 344 351 359 102 70 223 314 301 283 119 135 131 102 56 50 21 77 104 205 180 183 169 181 164 164 143 113 206 89 77 113 107
199 44 8 4 7 11 357 1 357 349 348 344 345 337 344 46 116 149 331 332 309 157 112 117 97 93 72 53 358 50 140 151 153 185 129 155 122 141 128 234 212 197 176 170 142
158 45 2 339 351 360 349 349 341 337 333 334 339 332 334 176 160 185 337 331 296 179 144 118 64 63 84 103 11 84 75 80 131 122 117 164 122 180 189 218 77 204 155 153 150
54 28 343 314 311 330 338 335 329 321 320 315 318 338 167 96 156 348 341 323 135 206 158 133 100 120 120 111 85 82 149 63 70 112 94 127 133 234 240 212 97 123 134 149 153
58 39 12 349 322 306 320 325 322 313 308 293 250 103 123 139 311 336 337 340 67 159 95 54 152 128 101 72 71 96 80 82 60 115 110 142 214 49 333 113 119 146 157 155 160
53 35 16 358 334 316 325 319 319 313 286 237 202 139 79 141 337 322 24 85 331 97 116 12 128 77 136 97 162 109 82 83 62 91 65 284 282 235 138 129 151 165 163 171 188
46 31 16 7 355 339 323 323 326 3 124 143 159 111 113 246 228 24 330 66 36 47 94 78 91 96 79 121 44 69 54 82 302 137 7 90 268 23 145 149 187 191 201 201 197
32 24 18 7 349 338 325 320 313 97 115 123 115 121 131 319 69 312 11 109 97 66 64 86 61 95 108 97 49 12 179 198 310 204 115 142 265 133 144 178 218 218 215 213 205
20 18 9 1 354 342 331 302 328 107 73 102 86 58 242 171 139 345 350 39 102 107 67 47 55 81 46 106 192 184 201 231 244 201 74 191 267 258 199 196 227 225 221 218 208
20 10 3 353 346 338 0 61 43 9 51 133 119 108 117 105 74 30 7 95 79 50 135 17 104 190 201 173 139 131 156 183 169 149 176 236 271 278 218 222 233 229 219 216 209
13 4 358 348 334 330 79 90 55 136 111 31 114 84 97 252 103 20 343 107 103 136 110 34 226 203 112 141 120 133 139 193 118 108 172 337 280 261 233 229 214 223 218 208 170
4 357 349 339 319 8 75 116 313 275 109 124 74 135 147 118 114 166 98 119 109 117 142 153 251 131 114 148 139 171 169 172 163 125 114 326 293 316 275 265 249 329 251 195 188
352 352 340 329 270 206 89 326 307 260 66 224 177 219 89 125 60 328 345 120 62 154 137 120 35 154 128 179 136 189 188 129 127 102 239 14 281 301 279 290 10 330 208 189 173
346 340 339 325 151 157 129 292 287 44 23 54 154 4 97 137 138 4 342 36 142 133 119 210 134 149 159 177 173 187 101 104 96 100 74 338 57 269 0 315 5 348 323 210 188
338 330 338 324 355 33 303 295 80 52 239 143 105 152 107 36 63 138 74 50 130 91 38 98 115 71 100 62 33 152 79 52 53 93 31 286 130 282 236 320 321 324 313 252 185
331 320 317 287 226 336 325 109 72 194 306 198 169 168 127 142 109 134 155 139 144 103 185 28 20 8 96 89 31 132 103 351 357 24 212 169 74 248 328 301 279 311 321 243 172
328 322 284 27 355 340 204 68 205 241 180 145 117 111 179 151 37 125 126 154 192 99 116 143 244 177 354 154 176 176 173 162 197 185 177 122 228 256 274 327 57 17 7 107 134
336 330 276 62 351 98 106 197 197 201 157 142 81 115 184 181 132 151 190 195 193 172 148 129 43 328 28 345 56 186 188 134 101 21 76 240 279 315 319 39 25 25 53 171 177
320 356 260 323 322 116 91 210 151 163 124 131 171 158 173 185 137 173 179 197 180 167 169 178 91 8 332 324 26 193 156 80 359 149 237 290 284 234 263 337 1 3 276 229 211
358 90 271 329 252 72 205 216 199 188 136 153 178 131 170 176 170 178 182 254 59 149 143 146 108 319 10 207 186 147 185 54 107 139 157 148 259 206 202 23 333 314 216 220 215
357 91 301 355 116 165 192 181 167 166 189 152 126 115 162 162 154 184 188 198 128 157 161 210 115 145 197 238 218 261 225 176 135 197 92 110 275 181 217 108 228 272 247 237 226
43 304 332 44 195 209 50 135 181 143 194 167 162 151 142 162 122 158 159 39 331 149 154 177 266 89 22 13 6 215 202 162 118 91 189 141 254 214 224 236 262 287 285 264 240
350 70 328 60 99 140 129 262 142 249 120 119 128 108 117 101 14 155 127 54 341 77 54 105 96 151 184 133 114 186 190 198 146 126 182 215 265 291 297 324 337 333 318 290 244
17 354 250 184 175 111 127 162 153 143 313 137 39 190 154 124 104 112 98 125 47 359 44 90 119 106 107 97 76 240 172 173 196 195 187 221 225 250 257 303 306 311 314 310 279
92 6 344 11 296 137 179 188 135 124 123 209 133 151 109 99 321 175 137 182 185 41 92 0 123 92 341 2 205 254 225 195 214 235 255 262 281 192 284 226 342 308 320 325 306
147 36 90 334 354 133 186 172 178 124 47 42 168 113 99 130 2 24 102 101 149 140 142 150 130 109 258 355 346 289 199 194 191 192 170 195 226 217 2 334 313 313 310 310 309